| time (UTC) | temp F | wind direction | speed MPH | gust MPH | rain 1hr in | rain 24hr in | rain mn in | humidity % | barometer mb |
| 20260903103045 | 71 | 119 | 6.0 | 10.0 | 0.00 | 0.00 | 0.00 | 52 | 1020.6 |
| 20260903102542 | 71 | 162 | 5.0 | 11.0 | 0.00 | 0.00 | 0.00 | 52 | 1020.7 |
| 20260903102042 | 71 | 237 | 7.0 | 9.0 | 0.00 | 0.00 | 0.00 | 54 | 1020.6 |
| 20260903101548 | 71 | 130 | 6.0 | 11.0 | 0.00 | 0.00 | 0.00 | 52 | 1020.6 |
| 20260903101045 | 71 | 157 | 4.0 | 10.0 | 0.00 | 0.00 | 0.00 | 54 | 1020.6 |
| 20260903100550 | 70 | 201 | 5.0 | 8.0 | 0.00 | 0.00 | 0.00 | 54 | 1020.7 |
| 20260903100048 | 71 | 190 | 8.0 | 13.0 | 0.00 | 0.00 | 0.00 | 52 | 1020.8 |
| 20260903095542 | 70 | 258 | 4.0 | 7.0 | 0.00 | 0.00 | 0.00 | 54 | 1020.7 |
| 20260903095042 | 70 | 100 | 7.0 | 11.0 | 0.00 | 0.00 | 0.00 | 54 | 1020.8 |
| 20260903094545 | 69 | 150 | 9.0 | 12.0 | 0.00 | 0.00 | 0.00 | 54 | 1020.8 |
| 20260903094045 | 69 | 184 | 7.0 | 12.0 | 0.00 | 0.00 | 0.00 | 54 | 1020.8 |
| 20260903093544 | 69 | 188 | 6.0 | 13.0 | 0.00 | 0.00 | 0.00 | 55 | 1020.8 |
| 20260903093045 | 69 | 230 | 3.0 | 11.0 | 0.00 | 0.00 | 0.00 | 55 | 1020.8 |
| 20260903092542 | 69 | 247 | 7.0 | 9.0 | 0.00 | 0.00 | 0.00 | 55 | 1020.8 |
| 20260903092045 | 68 | 158 | 6.0 | 10.0 | 0.00 | 0.00 | 0.00 | 55 | 1020.8 |
| 20260903091542 | 68 | 201 | 7.0 | 11.0 | 0.00 | 0.00 | 0.00 | 54 | 1020.8 |
| 20260903091045 | 69 | 197 | 6.0 | 10.0 | 0.00 | 0.00 | 0.00 | 54 | 1020.7 |
| 20260903090547 | 68 | 198 | 5.0 | 13.0 | 0.00 | 0.00 | 0.00 | 53 | 1020.6 |
| 20260903090051 | 69 | 220 | 4.0 | 11.0 | 0.00 | 0.00 | 0.00 | 54 | 1020.7 |
| 20260903085545 | 69 | 191 | 4.0 | 11.0 | 0.00 | 0.00 | 0.00 | 54 | 1020.8 |
| 20260903085051 | 69 | 124 | 5.0 | 9.0 | 0.00 | 0.00 | 0.00 | 53 | 1020.8 |
| 20260903084542 | 69 | 137 | 3.0 | 10.0 | 0.00 | 0.00 | 0.00 | 54 | 1020.7 |
| 20260903084048 | 68 | 146 | 3.0 | 9.0 | 0.00 | 0.00 | 0.00 | 57 | 1020.8 |
| 20260903083544 | 68 | 331 | 4.0 | 12.0 | 0.00 | 0.00 | 0.00 | 57 | 1020.9 |
| 20260903083042 | 68 | 156 | 7.0 | 12.0 | 0.00 | 0.00 | 0.00 | 58 | 1020.8 |
| 20260903082542 | 68 | 160 | 10.0 | 11.0 | 0.00 | 0.00 | 0.00 | 58 | 1020.8 |
| 20260903082042 | 68 | 168 | 6.0 | 9.0 | 0.00 | 0.00 | 0.00 | 59 | 1020.8 |
| 20260903081545 | 68 | 100 | 2.0 | 10.0 | 0.00 | 0.00 | 0.00 | 59 | 1020.8 |
| 20260903081042 | 68 | 112 | 6.0 | 10.0 | 0.00 | 0.00 | 0.00 | 61 | 1020.9 |
| 20260903080544 | 68 | 253 | 2.0 | 5.0 | 0.00 | 0.00 | 0.00 | 64 | 1021.0 |
| 20260903080042 | 68 | 135 | 1.0 | 6.0 | 0.00 | 0.00 | 0.00 | 65 | 1020.9 |
| 20260903075548 | 67 | 38 | 2.0 | 6.0 | 0.00 | 0.00 | 0.00 | 66 | 1021.0 |
| 20260903075048 | 67 | 145 | 3.0 | 5.0 | 0.00 | 0.00 | 0.00 | 67 | 1021.1 |
| 20260903074542 | 66 | 137 | 2.0 | 8.0 | 0.00 | 0.00 | 0.00 | 67 | 1021.0 |
| 20260903074042 | 66 | 215 | 2.0 | 5.0 | 0.00 | 0.00 | 0.00 | 66 | 1021.0 |
| 20260903073550 | 66 | 219 | 2.0 | 4.0 | 0.00 | 0.00 | 0.00 | 68 | 1021.0 |
| 20260903073048 | 66 | 180 | 1.0 | 5.0 | 0.00 | 0.00 | 0.00 | 68 | 1021.1 |
| 20260903072548 | 65 | 244 | 3.0 | 5.0 | 0.00 | 0.00 | 0.00 | 70 | 1021.2 |
| 20260903072042 | 65 | 287 | 0.0 | 4.0 | 0.00 | 0.00 | 0.00 | 71 | 1021.1 |
| 20260903071542 | 64 | 246 | 2.0 | 7.0 | 0.00 | 0.00 | 0.00 | 72 | 1021.1 |
| 20260903071042 | 64 | 197 | 6.0 | 7.0 | 0.00 | 0.00 | 0.00 | 71 | 1021.1 |
| 20260903070547 | 64 | 216 | 2.0 | 6.0 | 0.00 | 0.00 | 0.00 | 71 | 1021.1 |
| 20260903070042 | 64 | 181 | 3.0 | 7.0 | 0.00 | 0.00 | 0.00 | 71 | 1021.1 |
| 20260903065545 | 64 | 222 | 2.0 | 6.0 | 0.00 | 0.00 | 0.00 | 71 | 1021.2 |
| 20260903065048 | 64 | 135 | 2.0 | 6.0 | 0.00 | 0.00 | 0.00 | 72 | 1021.2 |
| 20260903064544 | 63 | 174 | 3.0 | 7.0 | 0.00 | 0.00 | 0.00 | 73 | 1021.2 |
| 20260903064042 | 63 | 228 | 1.0 | 7.0 | 0.00 | 0.00 | 0.00 | 73 | 1021.2 |
| 20260903063545 | 63 | 174 | 3.0 | 7.0 | 0.00 | 0.00 | 0.00 | 74 | 1021.1 |
| 20260903063048 | 63 | 166 | 0.0 | 5.0 | 0.00 | 0.00 | 0.00 | 77 | 1021.1 |
| 20260903062542 | 62 | 116 | 3.0 | 5.0 | 0.00 | 0.00 | 0.00 | 78 | 1021.0 |
| 20260903062045 | 62 | 76 | 1.0 | 4.0 | 0.00 | 0.00 | 0.00 | 79 | 1021.0 |
| 20260903061544 | 61 | 135 | 3.0 | 5.0 | 0.00 | 0.00 | 0.00 | 79 | 1021.0 |
| 20260903061042 | 61 | 133 | 5.0 | 5.0 | 0.00 | 0.00 | 0.00 | 80 | 1021.0 |
| 20260903060548 | 60 | 188 | 1.0 | 5.0 | 0.00 | 0.00 | 0.00 | 80 | 1020.9 |
| 20260903060048 | 61 | 193 | 3.0 | 4.0 | 0.00 | 0.00 | 0.00 | 81 | 1021.0 |
| 20260903055548 | 61 | 265 | 1.0 | 3.0 | 0.00 | 0.00 | 0.00 | 81 | 1020.9 |
| 20260903055045 | 61 | 265 | 1.0 | 3.0 | 0.00 | 0.00 | 0.00 | 80 | 1020.9 |
| 20260903054547 | 61 | 265 | 0.0 | 1.0 | 0.00 | 0.00 | 0.00 | 81 | 1020.8 |
| 20260903054042 | 61 | 265 | 0.0 | 3.0 | 0.00 | 0.00 | 0.00 | 80 | 1020.9 |
| 20260903053542 | 60 | 260 | 2.0 | 6.0 | 0.00 | 0.00 | 0.00 | 80 | 1020.8 |
| 20260903053042 | 60 | 189 | 5.0 | 5.0 | 0.00 | 0.00 | 0.00 | 81 | 1021.0 |
| 20260903052545 | 60 | 187 | 3.0 | 3.0 | 0.00 | 0.00 | 0.00 | 82 | 1021.0 |
| 20260903052042 | 60 | 188 | 0.0 | 4.0 | 0.00 | 0.00 | 0.00 | 82 | 1020.8 |
| 20260903051544 | 59 | 128 | 2.0 | 3.0 | 0.00 | 0.00 | 0.00 | 82 | 1020.7 |
| 20260903051042 | 59 | 128 | 0.0 | 4.0 | 0.00 | 0.00 | 0.00 | 82 | 1020.7 |
| 20260903050545 | 59 | 171 | 2.0 | 5.0 | 0.00 | 0.00 | 0.00 | 82 | 1020.7 |
| 20260903050042 | 59 | 177 | 1.0 | 4.0 | 0.00 | 0.00 | 0.00 | 82 | 1020.7 |
| 20260903045542 | 59 | 145 | 0.0 | 5.0 | 0.00 | 0.00 | 0.00 | 82 | 1020.8 |
| 20260903045042 | 59 | 124 | 2.0 | 5.0 | 0.00 | 0.00 | 0.00 | 82 | 1020.8 |
| 20260903044553 | 59 | 147 | 2.0 | 5.0 | 0.00 | 0.00 | 0.00 | 81 | 1020.7 |
| 20260903044051 | 60 | 141 | 4.0 | 4.0 | 0.00 | 0.00 | 0.00 | 81 | 1020.7 |
| 20260903043542 | 60 | 146 | 3.0 | 5.0 | 0.00 | 0.00 | 0.00 | 81 | 1020.7 |
| 20260903043045 | 60 | 149 | 3.0 | 4.0 | 0.00 | 0.00 | 0.00 | 81 | 1020.7 |
| 20260903042542 | 60 | 170 | 1.0 | 4.0 | 0.00 | 0.00 | 0.00 | 82 | 1020.7 |
| 20260903042042 | 59 | 156 | 2.0 | 5.0 | 0.00 | 0.00 | 0.00 | 82 | 1020.6 |
| 20260903041544 | 59 | 154 | 2.0 | 5.0 | 0.00 | 0.00 | 0.00 | 82 | 1020.6 |
| 20260903041045 | 59 | 145 | 4.0 | 5.0 | 0.00 | 0.00 | 0.00 | 82 | 1020.6 |
| 20260903040542 | 59 | 151 | 2.0 | 3.0 | 0.00 | 0.00 | 0.00 | 82 | 1020.7 |
| 20260903040045 | 60 | 108 | 2.0 | 3.0 | 0.00 | 0.00 | 0.00 | 81 | 1020.6 |
| 20260903035542 | 60 | 106 | 2.0 | 4.0 | 0.00 | 0.00 | 0.00 | 79 | 1020.7 |
| 20260903035045 | 60 | 123 | 3.0 | 3.0 | 0.00 | 0.00 | 0.00 | 79 | 1020.6 |
| 20260903034542 | 60 | 193 | 1.0 | 4.0 | 0.00 | 0.00 | 0.00 | 79 | 1020.7 |
| 20260903034042 | 60 | 183 | 1.0 | 3.0 | 0.00 | 0.00 | 0.00 | 80 | 1020.7 |
| 20260903033545 | 60 | 183 | 2.0 | 4.0 | 0.00 | 0.00 | 0.00 | 80 | 1020.6 |
| 20260903033042 | 60 | 142 | 2.0 | 3.0 | 0.00 | 0.00 | 0.00 | 79 | 1020.7 |
| 20260903032542 | 60 | 142 | 2.0 | 3.0 | 0.00 | 0.00 | 0.00 | 78 | 1020.7 |
| 20260903032044 | 60 | 142 | 1.0 | 2.0 | 0.00 | 0.00 | 0.00 | 78 | 1020.7 |
| 20260903031542 | 60 | 142 | 0.0 | 0.0 | 0.00 | 0.00 | 0.00 | 78 | 1020.8 |
| 20260903031045 | 60 | 143 | 0.0 | 2.0 | 0.00 | 0.00 | 0.00 | 79 | 1020.7 |
| 20260903030542 | 60 | 143 | 1.0 | 2.0 | 0.00 | 0.00 | 0.00 | 79 | 1020.8 |
| 20260903030045 | 60 | 143 | 1.0 | 2.0 | 0.00 | 0.00 | 0.00 | 78 | 1020.8 |
| 20260903025545 | 61 | 142 | 1.0 | 2.0 | 0.00 | 0.00 | 0.00 | 77 | 1020.8 |
| 20260903025044 | 61 | 143 | 0.0 | 0.0 | 0.00 | 0.00 | 0.00 | 77 | 1020.7 |
| 20260903024548 | 61 | 142 | 0.0 | 1.0 | 0.00 | 0.00 | 0.00 | 77 | 1020.6 |
| 20260903024042 | 61 | 142 | 0.0 | 2.0 | 0.00 | 0.00 | 0.00 | 77 | 1020.7 |
| 20260903023542 | 61 | 142 | 1.0 | 2.0 | 0.00 | 0.00 | 0.00 | 77 | 1020.8 |
| 20260903023042 | 61 | 142 | 0.0 | 3.0 | 0.00 | 0.00 | 0.00 | 77 | 1020.8 |
| 20260903022542 | 60 | 142 | 1.0 | 3.0 | 0.00 | 0.00 | 0.00 | 77 | 1020.7 |
| 20260903022047 | 60 | 142 | 0.0 | 5.0 | 0.00 | 0.00 | 0.00 | 77 | 1020.7 |
| 20260903021545 | 60 | 199 | 1.0 | 2.0 | 0.00 | 0.00 | 0.00 | 78 | 1020.7 |
| 20260903021048 | 60 | 224 | 2.0 | 4.0 | 0.00 | 0.00 | 0.00 | 78 | 1020.7 |
| 20260903020542 | 60 | 151 | 2.0 | 4.0 | 0.00 | 0.00 | 0.00 | 78 | 1020.7 |
| 20260903020045 | 60 | 182 | 3.0 | 4.0 | 0.00 | 0.00 | 0.00 | 78 | 1020.6 |
| 20260903015548 | 60 | 155 | 4.0 | 6.0 | 0.00 | 0.00 | 0.00 | 78 | 1020.6 |
| 20260903015047 | 61 | 138 | 4.0 | 5.0 | 0.00 | 0.00 | 0.00 | 77 | 1020.7 |
| 20260903014545 | 61 | 145 | 2.0 | 3.0 | 0.00 | 0.00 | 0.00 | 75 | 1020.7 |
| 20260903014042 | 61 | 202 | 0.0 | 1.0 | 0.00 | 0.00 | 0.00 | 75 | 1020.7 |
| 20260903013542 | 61 | 202 | 0.0 | 2.0 | 0.00 | 0.00 | 0.00 | 74 | 1020.8 |
| 20260903013042 | 62 | 202 | 2.0 | 3.0 | 0.00 | 0.00 | 0.00 | 74 | 1020.8 |
| 20260903012545 | 62 | 189 | 2.0 | 4.0 | 0.00 | 0.00 | 0.00 | 74 | 1020.8 |
| 20260903012044 | 62 | 202 | 2.0 | 5.0 | 0.00 | 0.00 | 0.00 | 74 | 1020.9 |
| 20260903011548 | 62 | 195 | 2.0 | 6.0 | 0.00 | 0.00 | 0.00 | 74 | 1020.8 |
| 20260903011042 | 61 | 201 | 3.0 | 5.0 | 0.00 | 0.00 | 0.00 | 74 | 1020.9 |
| 20260903010542 | 61 | 220 | 4.0 | 5.0 | 0.00 | 0.00 | 0.00 | 74 | 1020.9 |
| 20260903010045 | 62 | 234 | 2.0 | 5.0 | 0.00 | 0.00 | 0.00 | 74 | 1020.9 |
| 20260903005542 | 62 | 226 | 3.0 | 4.0 | 0.00 | 0.00 | 0.00 | 74 | 1020.9 |
| 20260903005047 | 62 | 206 | 3.0 | 4.0 | 0.00 | 0.00 | 0.00 | 74 | 1020.9 |
| 20260903004542 | 62 | 212 | 2.0 | 4.0 | 0.00 | 0.00 | 0.00 | 74 | 1020.9 |
| 20260903004042 | 62 | 214 | 2.0 | 4.0 | 0.00 | 0.00 | 0.00 | 73 | 1020.9 |
| 20260903003545 | 62 | 207 | 2.0 | 3.0 | 0.00 | 0.00 | 0.00 | 73 | 1020.9 |
| 20260903003042 | 62 | 243 | 3.0 | 4.0 | 0.00 | 0.00 | 0.00 | 73 | 1020.9 |
| 20260903002548 | 62 | 218 | 4.0 | 5.0 | 0.00 | 0.00 | 0.00 | 73 | 1020.9 |
| 20260903002044 | 62 | 209 | 1.0 | 3.0 | 0.00 | 0.00 | 0.00 | 72 | 1020.9 |
| 20260903001548 | 63 | 247 | 0.0 | 3.0 | 0.00 | 0.00 | 0.00 | 72 | 1021.0 |
| 20260903001048 | 63 | 250 | 2.0 | 4.0 | 0.00 | 0.00 | 0.00 | 71 | 1020.9 |
| 20260903000545 | 63 | 229 | 4.0 | 5.0 | 0.00 | 0.00 | 0.00 | 70 | 1020.9 |
| 20260903000042 | 63 | 224 | 4.0 | 8.0 | 0.00 | 0.00 | 0.00 | 70 | 1020.9 |
| 20260902235542 | 64 | 239 | 4.0 | 8.0 | 0.00 | 0.00 | 0.00 | 69 | 1020.9 |
| 20260902235044 | 64 | 187 | 3.0 | 8.0 | 0.00 | 0.00 | 0.00 | 69 | 1021.0 |
| 20260902234548 | 64 | 197 | 4.0 | 7.0 | 0.00 | 0.00 | 0.00 | 69 | 1020.9 |
| 20260902234042 | 64 | 218 | 7.0 | 8.0 | 0.00 | 0.00 | 0.00 | 69 | 1020.9 |
| 20260902233542 | 64 | 193 | 4.0 | 7.0 | 0.00 | 0.00 | 0.00 | 68 | 1020.9 |
| 20260902233042 | 64 | 156 | 4.0 | 8.0 | 0.00 | 0.00 | 0.00 | 69 | 1020.9 |
| 20260902232545 | 64 | 217 | 6.0 | 7.0 | 0.00 | 0.00 | 0.00 | 69 | 1020.9 |
| 20260902232047 | 64 | 177 | 2.0 | 7.0 | 0.00 | 0.00 | 0.00 | 69 | 1020.9 |
| 20260902231545 | 64 | 212 | 7.0 | 6.0 | 0.00 | 0.00 | 0.00 | 69 | 1021.0 |
| 20260902231045 | 64 | 163 | 1.0 | 7.0 | 0.00 | 0.00 | 0.00 | 68 | 1021.0 |
| 20260902230542 | 65 | 195 | 1.0 | 4.0 | 0.00 | 0.00 | 0.00 | 68 | 1020.9 |
| 20260902230048 | 65 | 176 | 3.0 | 7.0 | 0.00 | 0.00 | 0.00 | 67 | 1020.9 |
| 20260902225542 | 65 | 146 | 3.0 | 6.0 | 0.00 | 0.00 | 0.00 | 67 | 1020.9 |
| 20260902225050 | 65 | 173 | 2.0 | 5.0 | 0.00 | 0.00 | 0.00 | 67 | 1020.9 |
| 20260902224545 | 65 | 174 | 2.0 | 7.0 | 0.00 | 0.00 | 0.00 | 67 | 1020.9 |
| 20260902224042 | 65 | 163 | 3.0 | 6.0 | 0.00 | 0.00 | 0.00 | 67 | 1021.0 |
| 20260902223545 | 65 | 192 | 5.0 | 6.0 | 0.00 | 0.00 | 0.00 | 66 | 1021.0 |
| 20260902223042 | 66 | 220 | 2.0 | 6.0 | 0.00 | 0.00 | 0.00 | 66 | 1021.1 |
| 20260902222551 | 65 | 135 | 4.0 | 7.0 | 0.00 | 0.00 | 0.00 | 67 | 1021.0 |
| 20260902222047 | 65 | 203 | 3.0 | 7.0 | 0.00 | 0.00 | 0.00 | 68 | 1021.0 |
| 20260902221545 | 65 | 158 | 3.0 | 6.0 | 0.00 | 0.00 | 0.00 | 69 | 1021.1 |
| 20260902221042 | 65 | 116 | 2.0 | 6.0 | 0.00 | 0.00 | 0.00 | 68 | 1021.1 |
| 20260902220545 | 65 | 171 | 5.0 | 6.0 | 0.00 | 0.00 | 0.00 | 70 | 1021.1 |
| 20260902220042 | 65 | 154 | 2.0 | 4.0 | 0.00 | 0.00 | 0.00 | 70 | 1021.1 |
| 20260902215545 | 65 | 159 | 3.0 | 6.0 | 0.00 | 0.00 | 0.00 | 69 | 1021.0 |
| 20260902215044 | 65 | 162 | 4.0 | 6.0 | 0.00 | 0.00 | 0.00 | 69 | 1021.0 |
| 20260902214542 | 65 | 156 | 4.0 | 6.0 | 0.00 | 0.00 | 0.00 | 69 | 1021.0 |
| 20260902214042 | 65 | 157 | 5.0 | 5.0 | 0.00 | 0.00 | 0.00 | 68 | 1021.1 |
| 20260902213542 | 65 | 176 | 4.0 | 6.0 | 0.00 | 0.00 | 0.00 | 69 | 1021.1 |
| 20260902213045 | 65 | 151 | 4.0 | 6.0 | 0.00 | 0.00 | 0.00 | 69 | 1021.1 |
| 20260902212542 | 65 | 146 | 3.0 | 6.0 | 0.00 | 0.00 | 0.00 | 69 | 1021.1 |
| 20260902212044 | 65 | 152 | 4.0 | 6.0 | 0.00 | 0.00 | 0.00 | 69 | 1021.1 |
| 20260902211542 | 66 | 121 | 3.0 | 7.0 | 0.00 | 0.00 | 0.00 | 69 | 1021.1 |
| 20260902211048 | 65 | 160 | 4.0 | 5.0 | 0.00 | 0.00 | 0.00 | 70 | 1021.1 |
| 20260902210548 | 65 | 139 | 3.0 | 7.0 | 0.00 | 0.00 | 0.00 | 71 | 1021.1 |
| 20260902210048 | 65 | 136 | 5.0 | 7.0 | 0.00 | 0.00 | 0.00 | 71 | 1021.1 |
| 20260902205544 | 65 | 159 | 5.0 | 6.0 | 0.00 | 0.00 | 0.00 | 71 | 1021.1 |
| 20260902205045 | 65 | 173 | 5.0 | 7.0 | 0.00 | 0.00 | 0.00 | 72 | 1021.1 |
| 20260902204542 | 65 | 148 | 5.0 | 6.0 | 0.00 | 0.00 | 0.00 | 71 | 1021.0 |
| 20260902204042 | 65 | 131 | 5.0 | 7.0 | 0.00 | 0.00 | 0.00 | 71 | 1021.1 |
| 20260902203542 | 66 | 160 | 5.0 | 8.0 | 0.00 | 0.00 | 0.00 | 70 | 1021.0 |
| 20260902203044 | 66 | 151 | 3.0 | 4.0 | 0.00 | 0.00 | 0.00 | 71 | 1020.9 |
| 20260902202545 | 66 | 166 | 3.0 | 5.0 | 0.00 | 0.00 | 0.00 | 71 | 1020.9 |
| 20260902202045 | 66 | 193 | 2.0 | 2.0 | 0.00 | 0.00 | 0.00 | 71 | 1020.9 |
| 20260902201542 | 66 | 193 | 1.0 | 3.0 | 0.00 | 0.00 | 0.00 | 71 | 1020.8 |
| 20260902201044 | 65 | 220 | 1.0 | 2.0 | 0.00 | 0.00 | 0.00 | 71 | 1020.8 |
| 20260902200545 | 65 | 231 | 1.0 | 3.0 | 0.00 | 0.00 | 0.00 | 71 | 1020.8 |
| 20260902200045 | 66 | 255 | 3.0 | 4.0 | 0.00 | 0.00 | 0.00 | 70 | 1020.8 |
| 20260902195548 | 66 | 249 | 1.0 | 5.0 | 0.00 | 0.00 | 0.00 | 69 | 1020.7 |
| 20260902195048 | 66 | 282 | 2.0 | 4.0 | 0.00 | 0.00 | 0.00 | 68 | 1020.8 |
| 20260902194544 | 66 | 258 | 2.0 | 5.0 | 0.00 | 0.00 | 0.00 | 68 | 1020.8 |
| 20260902194051 | 66 | 282 | 3.0 | 5.0 | 0.00 | 0.00 | 0.00 | 67 | 1020.8 |
| 20260902193542 | 66 | 294 | 2.0 | 5.0 | 0.00 | 0.00 | 0.00 | 67 | 1020.8 |
| 20260902193048 | 67 | 277 | 4.0 | 6.0 | 0.00 | 0.00 | 0.00 | 66 | 1020.8 |
| 20260902192545 | 67 | 255 | 3.0 | 5.0 | 0.00 | 0.00 | 0.00 | 65 | 1020.8 |
| 20260902192048 | 67 | 245 | 3.0 | 5.0 | 0.00 | 0.00 | 0.00 | 64 | 1020.8 |
| 20260902191547 | 67 | 266 | 3.0 | 5.0 | 0.00 | 0.00 | 0.00 | 64 | 1020.7 |
| 20260902191042 | 68 | 247 | 1.0 | 4.0 | 0.00 | 0.00 | 0.00 | 63 | 1020.7 |
| 20260902190542 | 68 | 262 | 3.0 | 5.0 | 0.00 | 0.00 | 0.00 | 62 | 1020.8 |
| 20260902190045 | 68 | 244 | 3.0 | 5.0 | 0.00 | 0.00 | 0.00 | 61 | 1020.7 |
| 20260902185550 | 69 | 208 | 1.0 | 7.0 | 0.00 | 0.00 | 0.00 | 60 | 1020.7 |
| 20260902185042 | 69 | 192 | 4.0 | 10.0 | 0.00 | 0.00 | 0.00 | 60 | 1020.7 |
| 20260902184548 | 69 | 211 | 3.0 | 12.0 | 0.00 | 0.00 | 0.00 | 60 | 1020.7 |
| 20260902184045 | 69 | 203 | 6.0 | 11.0 | 0.00 | 0.00 | 0.00 | 61 | 1020.6 |
| 20260902183542 | 69 | 151 | 4.0 | 8.0 | 0.00 | 0.00 | 0.00 | 59 | 1020.6 |
| 20260902183042 | 70 | 181 | 4.0 | 12.0 | 0.00 | 0.00 | 0.00 | 57 | 1020.5 |
| 20260902182550 | 71 | 221 | 8.0 | 14.0 | 0.00 | 0.00 | 0.00 | 55 | 1020.5 |
| 20260902182045 | 72 | 173 | 11.0 | 10.0 | 0.00 | 0.00 | 0.00 | 51 | 1020.4 |
| 20260902181545 | 72 | 205 | 2.0 | 7.0 | 0.00 | 0.00 | 0.00 | 51 | 1020.1 |
| 20260902181045 | 72 | 161 | 5.0 | 9.0 | 0.00 | 0.00 | 0.00 | 50 | 1019.9 |
| 20260902180542 | 72 | 130 | 4.0 | 6.0 | 0.00 | 0.00 | 0.00 | 50 | 1019.9 |
| 20260902180042 | 72 | 178 | 3.0 | 6.0 | 0.00 | 0.00 | 0.00 | 51 | 1019.8 |
| 20260902175544 | 72 | 158 | 4.0 | 5.0 | 0.00 | 0.00 | 0.00 | 51 | 1019.8 |
| 20260902175045 | 72 | 150 | 3.0 | 7.0 | 0.00 | 0.00 | 0.00 | 51 | 1019.7 |
| 20260902174551 | 72 | 167 | 5.0 | 6.0 | 0.00 | 0.00 | 0.00 | 51 | 1019.6 |
| 20260902174045 | 72 | 148 | 4.0 | 5.0 | 0.00 | 0.00 | 0.00 | 50 | 1019.6 |
| 20260902173545 | 72 | 168 | 2.0 | 4.0 | 0.00 | 0.00 | 0.00 | 50 | 1019.7 |
| 20260902173042 | 72 | 187 | 1.0 | 3.0 | 0.00 | 0.00 | 0.00 | 50 | 1019.6 |
| 20260902172544 | 72 | 187 | 2.0 | 3.0 | 0.00 | 0.00 | 0.00 | 50 | 1019.7 |
| 20260902172042 | 73 | 143 | 1.0 | 3.0 | 0.00 | 0.00 | 0.00 | 50 | 1019.6 |
| 20260902171542 | 73 | 160 | 2.0 | 5.0 | 0.00 | 0.00 | 0.00 | 50 | 1019.6 |
| 20260902171045 | 73 | 118 | 4.0 | 4.0 | 0.00 | 0.00 | 0.00 | 49 | 1019.6 |
| 20260902170545 | 73 | 160 | 3.0 | 4.0 | 0.00 | 0.00 | 0.00 | 50 | 1019.6 |
| 20260902170042 | 73 | 136 | 2.0 | 5.0 | 0.00 | 0.00 | 0.00 | 49 | 1019.6 |
| 20260902165544 | 73 | 156 | 3.0 | 5.0 | 0.00 | 0.00 | 0.00 | 49 | 1019.6 |
| 20260902165042 | 73 | 160 | 2.0 | 5.0 | 0.00 | 0.00 | 0.00 | 49 | 1019.6 |
| 20260902164548 | 73 | 119 | 3.0 | 5.0 | 0.00 | 0.00 | 0.00 | 48 | 1019.7 |
| 20260902164051 | 73 | 112 | 2.0 | 4.0 | 0.00 | 0.00 | 0.00 | 47 | 1019.7 |
| 20260902163545 | 73 | 144 | 2.0 | 4.0 | 0.00 | 0.00 | 0.00 | 47 | 1019.7 |
| 20260902163045 | 74 | 166 | 4.0 | 5.0 | 0.00 | 0.00 | 0.00 | 47 | 1019.7 |
| 20260902162544 | 74 | 151 | 3.0 | 8.0 | 0.00 | 0.00 | 0.00 | 47 | 1019.7 |
| 20260902162042 | 74 | 122 | 3.0 | 7.0 | 0.00 | 0.00 | 0.00 | 47 | 1019.7 |
| 20260902161542 | 75 | 167 | 4.0 | 8.0 | 0.00 | 0.00 | 0.00 | 47 | 1019.6 |
| 20260902161045 | 75 | 112 | 6.0 | 7.0 | 0.00 | 0.00 | 0.00 | 46 | 1019.6 |
| 20260902160542 | 75 | 23 | 1.0 | 5.0 | 0.00 | 0.00 | 0.00 | 48 | 1019.6 |
| 20260902160045 | 74 | 86 | 5.0 | 8.0 | 0.00 | 0.00 | 0.00 | 47 | 1019.6 |
| 20260902155547 | 74 | 95 | 2.0 | 8.0 | 0.00 | 0.00 | 0.00 | 47 | 1019.6 |
| 20260902155051 | 74 | 89 | 5.0 | 7.0 | 0.00 | 0.00 | 0.00 | 48 | 1019.6 |
| 20260902154545 | 74 | 88 | 5.0 | 9.0 | 0.00 | 0.00 | 0.00 | 47 | 1019.6 |
| 20260902154042 | 74 | 60 | 4.0 | 6.0 | 0.00 | 0.00 | 0.00 | 48 | 1019.7 |
| 20260902153545 | 74 | 133 | 2.0 | 5.0 | 0.00 | 0.00 | 0.00 | 48 | 1019.7 |
| 20260902153042 | 74 | 68 | 2.0 | 7.0 | 0.00 | 0.00 | 0.00 | 47 | 1019.7 |
| 20260902152544 | 74 | 179 | 7.0 | 7.0 | 0.00 | 0.00 | 0.00 | 47 | 1019.8 |
| 20260902152045 | 75 | 121 | 3.0 | 8.0 | 0.00 | 0.00 | 0.00 | 46 | 1019.9 |
| 20260902151542 | 75 | 140 | 6.0 | 9.0 | 0.00 | 0.00 | 0.00 | 46 | 1019.8 |
| 20260902151042 | 76 | 164 | 2.0 | 6.0 | 0.00 | 0.00 | 0.00 | 46 | 1019.8 |
| 20260902150542 | 75 | 186 | 2.0 | 6.0 | 0.00 | 0.00 | 0.00 | 47 | 1019.9 |
| 20260902150042 | 74 | 220 | 5.0 | 6.0 | 0.00 | 0.00 | 0.00 | 47 | 1020.0 |
| 20260902145544 | 74 | 199 | 5.0 | 9.0 | 0.00 | 0.00 | 0.00 | 47 | 1020.1 |
| 20260902145042 | 74 | 172 | 7.0 | 9.0 | 0.00 | 0.00 | 0.00 | 47 | 1020.0 |
| 20260902144545 | 75 | 227 | 4.0 | 7.0 | 0.00 | 0.00 | 0.00 | 46 | 1020.1 |
| 20260902144045 | 75 | 180 | 1.0 | 10.0 | 0.00 | 0.00 | 0.00 | 46 | 1020.1 |
| 20260902143542 | 76 | 155 | 8.0 | 11.0 | 0.00 | 0.00 | 0.00 | 45 | 1020.1 |
| 20260902143045 | 76 | 69 | 0.0 | 7.0 | 0.00 | 0.00 | 0.00 | 45 | 1020.1 |
| 20260902142544 | 76 | 237 | 2.0 | 7.0 | 0.00 | 0.00 | 0.00 | 45 | 1020.1 |
| 20260902142048 | 76 | 241 | 6.0 | 8.0 | 0.00 | 0.00 | 0.00 | 46 | 1020.2 |
| 20260902141542 | 75 | 237 | 5.0 | 8.0 | 0.00 | 0.00 | 0.00 | 45 | 1020.2 |
| 20260902141048 | 75 | 287 | 1.0 | 6.0 | 0.00 | 0.00 | 0.00 | 45 | 1020.2 |
| 20260902140542 | 75 | 87 | 1.0 | 8.0 | 0.00 | 0.00 | 0.00 | 46 | 1020.2 |
| 20260902140042 | 74 | 183 | 2.0 | 8.0 | 0.00 | 0.00 | 0.00 | 46 | 1020.2 |
| 20260902135546 | 75 | 208 | 6.0 | 11.0 | 0.00 | 0.00 | 0.00 | 44 | 1020.2 |
| 20260902135048 | 76 | 215 | 9.0 | 9.0 | 0.00 | 0.00 | 0.00 | 44 | 1020.3 |
| 20260902134551 | 76 | 139 | 4.0 | 10.0 | 0.00 | 0.00 | 0.00 | 44 | 1020.3 |
| 20260902134045 | 76 | 199 | 5.0 | 8.0 | 0.00 | 0.00 | 0.00 | 44 | 1020.4 |
| 20260902133548 | 75 | 249 | 1.0 | 5.0 | 0.00 | 0.00 | 0.00 | 45 | 1020.3 |
| 20260902133042 | 75 | 207 | 3.0 | 8.0 | 0.00 | 0.00 | 0.00 | 46 | 1020.4 |
| 20260902132550 | 74 | 171 | 1.0 | 7.0 | 0.00 | 0.00 | 0.00 | 46 | 1020.4 |
| 20260902132045 | 74 | 194 | 2.0 | 7.0 | 0.00 | 0.00 | 0.00 | 46 | 1020.4 |
| 20260902131542 | 74 | 206 | 5.0 | 11.0 | 0.00 | 0.00 | 0.00 | 46 | 1020.5 |
| 20260902131042 | 74 | 151 | 6.0 | 9.0 | 0.00 | 0.00 | 0.00 | 46 | 1020.5 |
| 20260902130545 | 74 | 168 | 6.0 | 7.0 | 0.00 | 0.00 | 0.00 | 46 | 1020.6 |
| 20260902130045 | 74 | 93 | 5.0 | 9.0 | 0.00 | 0.00 | 0.00 | 46 | 1020.6 |
| 20260902125544 | 73 | 156 | 4.0 | 10.0 | 0.00 | 0.00 | 0.00 | 46 | 1020.6 |
| 20260902125045 | 74 | 134 | 7.0 | 14.0 | 0.00 | 0.00 | 0.00 | 45 | 1020.7 |
| 20260902124548 | 75 | 114 | 2.0 | 10.0 | 0.00 | 0.00 | 0.00 | 44 | 1020.7 |
| 20260902124048 | 75 | 143 | 2.0 | 8.0 | 0.00 | 0.00 | 0.00 | 45 | 1020.7 |
| 20260902123542 | 75 | 114 | 1.0 | 8.0 | 0.00 | 0.00 | 0.00 | 46 | 1020.7 |
| 20260902123042 | 74 | 127 | 2.0 | 7.0 | 0.00 | 0.00 | 0.00 | 46 | 1020.7 |
| 20260902122544 | 73 | 241 | 3.0 | 9.0 | 0.00 | 0.00 | 0.00 | 46 | 1020.8 |
| 20260902122042 | 73 | 98 | 6.0 | 7.0 | 0.00 | 0.00 | 0.00 | 48 | 1020.9 |
| 20260902121548 | 73 | 155 | 6.0 | 14.0 | 0.00 | 0.00 | 0.00 | 48 | 1020.9 |
| 20260902121045 | 73 | 158 | 5.0 | 10.0 | 0.00 | 0.00 | 0.00 | 47 | 1020.9 |
| 20260902120545 | 74 | 195 | 0.0 | 10.0 | 0.00 | 0.00 | 0.00 | 46 | 1020.9 |
| 20260902120045 | 74 | 149 | 5.0 | 7.0 | 0.00 | 0.00 | 0.00 | 47 | 1020.9 |
| 20260902115547 | 74 | 201 | 4.0 | 5.0 | 0.00 | 0.00 | 0.00 | 48 | 1020.9 |
| 20260902115042 | 74 | 150 | 2.0 | 6.0 | 0.00 | 0.00 | 0.00 | 47 | 1021.0 |
| 20260902114545 | 74 | 146 | 3.0 | 9.0 | 0.00 | 0.00 | 0.00 | 47 | 1020.9 |
| 20260902114042 | 74 | 144 | 3.0 | 7.0 | 0.00 | 0.00 | 0.00 | 48 | 1020.9 |
| 20260902113545 | 73 | 170 | 3.0 | 10.0 | 0.00 | 0.00 | 0.00 | 49 | 1021.1 |
| 20260902113047 | 73 | 189 | 3.0 | 11.0 | 0.00 | 0.00 | 0.00 | 49 | 1021.2 |
| 20260902112545 | 73 | 163 | 11.0 | 12.0 | 0.00 | 0.00 | 0.00 | 48 | 1021.2 |
| 20260902112042 | 72 | 239 | 2.0 | 11.0 | 0.00 | 0.00 | 0.00 | 49 | 1021.3 |
| 20260902111542 | 73 | 209 | 5.0 | 10.0 | 0.00 | 0.00 | 0.00 | 48 | 1021.3 |
| 20260902111045 | 73 | 181 | 4.0 | 12.0 | 0.00 | 0.00 | 0.00 | 49 | 1021.3 |
| 20260902110542 | 73 | 141 | 9.0 | 12.0 | 0.00 | 0.00 | 0.00 | 49 | 1021.4 |
| 20260902110044 | 72 | 168 | 3.0 | 6.0 | 0.00 | 0.00 | 0.00 | 49 | 1021.4 |
| 20260902105542 | 72 | 291 | 1.0 | 10.0 | 0.00 | 0.00 | 0.00 | 51 | 1021.5 |
| 20260902105045 | 71 | 139 | 6.0 | 10.0 | 0.00 | 0.00 | 0.00 | 51 | 1021.6 |
| 20260902104545 | 71 | 225 | 3.0 | 6.0 | 0.00 | 0.00 | 0.00 | 54 | 1021.6 |
| 20260902104042 | 71 | 199 | 6.0 | 10.0 | 0.00 | 0.00 | 0.00 | 55 | 1021.6 |
| 20260902103553 | 71 | 203 | 4.0 | 9.0 | 0.00 | 0.00 | 0.00 | 55 | 1021.5 |